This is the latest recevied weather packets stored in our database for station/object SQ3MKP-13. If no packets are shown the sender has not sent any weather packets the latest 10 day(s).
| Time | Temp. | Humidity | Pressure | Rain* | Wind** | Luminosity | Snow |
|---|---|---|---|---|---|---|---|
| 1787842401 | 24.44° C | 41% | 1011.1 hPa | - | - | 167 W/m² | - |
| 1787842100 | 24.44° C | 41% | 1011.1 hPa | - | - | 248 W/m² | - |
| 1787841799 | 24.44° C | 41% | 1010.9 hPa | - | - | 243 W/m² | - |
| 1787841502 | 24.44° C | 41% | 1010.9 hPa | - | - | 75 W/m² | - |
| 1787841197 | 24.44° C | 40% | 1011 hPa | - | - | 76 W/m² | - |
| 1787840896 | 24.44° C | 41% | 1011 hPa | - | - | 297 W/m² | - |
| 1787840595 | 24.44° C | 40% | 1011.1 hPa | - | - | 76 W/m² | - |
| 1787840293 | 24.44° C | 40% | 1011 hPa | - | - | 76 W/m² | - |
| 1787839993 | 24.44° C | 41% | 1011.2 hPa | - | - | 133 W/m² | - |
| 1787839692 | 24.44° C | 39% | 1011.1 hPa | - | - | 348 W/m² | - |
| 1787839391 | 24.44° C | 40% | 1011.2 hPa | - | - | 363 W/m² | - |
| 1787839090 | 24.44° C | 40% | 1011.3 hPa | - | - | 375 W/m² | - |
| 1787838788 | 24.44° C | 40% | 1011.3 hPa | - | - | 389 W/m² | - |
| 1787838488 | 24.44° C | 40% | 1011.3 hPa | - | - | 401 W/m² | - |
| 1787838186 | 24.44° C | 40% | 1011.3 hPa | - | - | 413 W/m² | - |
| 1787837885 | 24.44° C | 39% | 1011.2 hPa | - | - | 422 W/m² | - |
| 1787837584 | 24.44° C | 39% | 1011.3 hPa | - | - | 438 W/m² | - |
| 1787836978 | 24.44° C | 39% | 1011.3 hPa | - | - | 463 W/m² | - |
| 1787836677 | 24.44° C | 38% | 1011.4 hPa | - | - | 408 W/m² | - |
| 1787836375 | 24.44° C | 38% | 1011.3 hPa | - | - | 485 W/m² | - |
| 1787835769 | 24.44° C | 38% | 1011.4 hPa | - | - | 497 W/m² | - |
| 1787835467 | 24.44° C | 38% | 1011.4 hPa | - | - | 510 W/m² | - |
| 1787834865 | 23.89° C | 39% | 1011.5 hPa | - | - | 524 W/m² | - |
| 1787834570 | 23.89° C | 39% | 1011.5 hPa | - | - | 537 W/m² | - |
| 1787834263 | 23.89° C | 40% | 1011.6 hPa | - | - | 551 W/m² | - |
* Rain since midnight (hover to see other rain measurements)
** Current wind speed in m/s (hover to see current wind gust speed)